Change the Weather History Date:

Wednesday, June 26, 2013

  Actual Average Record
Temperature  
Mean Temperature 86 °F -  
Max Temperature 100 °F 88 °F 107 °F (2012)
Min Temperature 71 °F 67 °F 57 °F (2003)
Cooling Degree Days 20    
Growing Degree Days 36 (Base 50)    
Moisture  
Dew Point 69 °F    
Average Humidity 67    
Maximum Humidity 83    
Minimum Humidity 37    
Precipitation  
Precipitation 0.00 in - - ()
Sea Level Pressure  
Sea Level Pressure 29.82 in    
Wind  
Wind Speed 9 mph (SSE)    
Max Wind Speed 17 mph    
Max Gust Speed 18 mph    
Visibility 10 miles    
Events      
Averages and records for this station are not official NWS values.
T = Trace of Precipitation, MM = Missing Value Source: NWS Daily Summary

Daily Weather History Graph

Daily Weather History Graph

Search for Another Location

Airport or City:

Trip Planner

Search our weather history database for the weather conditions in past years. The results will help you decide how hot, cold, wet, or windy it might be!

Date:

Astronomy

Jun. 26, 2013 Rise Set
Actual Time 6:15 AM CDT 8:53 PM CDT
Civil Twilight 5:44 AM CDT 9:23 PM CDT
Nautical Twilight 5:06 AM CDT 10:01 PM CDT
Astronomical Twilight 4:24 AM CDT 10:43 PM CDT
Moon 11:24 PM CDT (6/26) 10:01 AM CDT (6/26)
Length of Visible Light 15h 38m
Length of Day
14h 37m
Waning Gibbous, 85% of the Moon is Illuminated
Jun 26
Waning Gibbous
Jun 29
Last Quarter
Jul 8
New
Jul 15
First Quarter
Jul 22
Full

Hourly Weather History & Observations

Time (CDT) Temp. Heat Index Dew Point Humidity Pressure Visibility Wind Dir Wind Speed Gust Speed Precip Events Conditions
12:15 AM 78.8 °F - 69.8 °F 74% 29.77 in 10.0 mi SSE 9.2 mph - N/A   Clear
12:35 AM 78.8 °F - 69.8 °F 74% 29.76 in 10.0 mi South 10.4 mph - N/A   Clear
12:55 AM 77.0 °F - 69.8 °F 78% 29.78 in 10.0 mi SE 8.1 mph - N/A   Clear
1:15 AM 77.0 °F - 69.8 °F 78% 29.77 in 10.0 mi South 8.1 mph - N/A   Clear
1:35 AM 77.0 °F - 68.0 °F 74% 29.78 in 10.0 mi SE 6.9 mph - N/A   Clear
1:55 AM 75.2 °F - 69.8 °F 83% 29.77 in 10.0 mi SSE 8.1 mph - N/A   Clear
2:15 AM 75.2 °F - 68.0 °F 78% 29.77 in 10.0 mi South 6.9 mph - N/A   Clear
2:35 AM 73.4 °F - 68.0 °F 83% 29.77 in 10.0 mi SSE 8.1 mph - N/A   Clear
2:55 AM 75.2 °F - 68.0 °F 78% 29.76 in 10.0 mi South 9.2 mph - N/A   Clear
3:15 AM 73.4 °F - 68.0 °F 83% 29.77 in 10.0 mi ESE 4.6 mph - N/A   Clear
3:35 AM 73.4 °F - 68.0 °F 83% 29.78 in 10.0 mi East 8.1 mph - N/A   Clear
3:55 AM 75.2 °F - 66.2 °F 73% 29.77 in 10.0 mi SE 9.2 mph - N/A   Clear
4:15 AM 75.2 °F - 66.2 °F 73% 29.77 in 10.0 mi SE 8.1 mph - N/A   Clear
4:35 AM 73.4 °F - 64.4 °F 73% 29.78 in 10.0 mi SSE 6.9 mph - N/A   Clear
4:55 AM 73.4 °F - 64.4 °F 73% 29.78 in 10.0 mi SSE 8.1 mph - N/A   Clear
5:15 AM 71.6 °F - 64.4 °F 78% 29.78 in 10.0 mi SSE 8.1 mph - N/A   Clear
5:35 AM 71.6 °F - 64.4 °F 78% 29.79 in 10.0 mi South 8.1 mph - N/A   Clear
5:55 AM 71.6 °F - 64.4 °F 78% 29.79 in 10.0 mi South 8.1 mph - N/A   Clear
6:17 AM 73.4 °F - 66.2 °F 78% 29.80 in 10.0 mi South 11.5 mph - N/A   Scattered Clouds
6:50 AM 73.4 °F - 66.2 °F 78% 29.80 in 10.0 mi South 11.5 mph - N/A   Scattered Clouds
7:50 AM 78.8 °F - 66.2 °F 65% 29.82 in 10.0 mi SSW 11.5 mph - N/A   Partly Cloudy
8:50 AM 86.0 °F 88.2 °F 66.2 °F 51% 29.84 in 10.0 mi SSW 17.3 mph - N/A   Clear
9:50 AM 89.6 °F 92.2 °F 66.2 °F 46% 29.85 in 10.0 mi South 17.3 mph - N/A   Clear
10:50 AM 93.2 °F 96.2 °F 66.2 °F 41% 29.85 in 10.0 mi SSW 11.5 mph 18.4 mph N/A   Clear
11:50 AM 96.8 °F 101.8 °F 68.0 °F 39% 29.85 in 10.0 mi SSW 11.5 mph 18.4 mph N/A   Clear
12:50 PM 98.6 °F 104.1 °F 68.0 °F 37% 29.85 in 10.0 mi SW 11.5 mph - N/A   Clear
1:50 PM 98.6 °F 105.5 °F 69.8 °F 39% 29.85 in 10.0 mi South 15.0 mph - N/A   Clear
2:50 PM 100.4 °F 107.8 °F 69.8 °F 37% 29.84 in 7.0 mi South 15.0 mph - N/A   Clear
4:50 PM 100.4 °F 109.3 °F 71.6 °F 39% 29.83 in 7.0 mi South 17.3 mph - N/A   Clear
5:50 PM 98.6 °F 107.7 °F 71.6 °F 42% 29.84 in 7.0 mi South 15.0 mph - N/A   Partly Cloudy
6:50 PM 96.8 °F 105.1 °F 71.6 °F 44% 29.84 in 7.0 mi South 15.0 mph - N/A   Clear
7:50 PM 93.2 °F 102.4 °F 73.4 °F 52% 29.85 in 7.0 mi SSE 16.1 mph - N/A   Clear
8:50 PM 87.8 °F 95.6 °F 73.4 °F 62% 29.86 in 7.0 mi SSE 11.5 mph - N/A   Clear
9:15 PM 86.0 °F 93.4 °F 73.4 °F 66% 29.87 in 10.0 mi SSE 8.1 mph - N/A   Scattered Clouds
9:35 PM 84.2 °F 90.9 °F 73.4 °F 70% 29.88 in 10.0 mi SE 8.1 mph - N/A   Scattered Clouds
9:55 PM 82.4 °F 88.2 °F 73.4 °F 74% 29.88 in 10.0 mi SSE 8.1 mph - N/A   Scattered Clouds
10:15 PM 82.4 °F 88.2 °F 73.4 °F 74% 29.89 in 10.0 mi SSE 8.1 mph - N/A   Clear
10:35 PM 80.6 °F 85.4 °F 73.4 °F 79% 29.89 in 10.0 mi SSE 6.9 mph - N/A   Scattered Clouds
10:55 PM 80.6 °F 85.4 °F 73.4 °F 79% 29.91 in 10.0 mi SSE 5.8 mph - N/A   Clear
11:15 PM 78.8 °F - 73.4 °F 83% 29.91 in 10.0 mi SSE 6.9 mph - N/A   Scattered Clouds
11:35 PM 78.8 °F - 73.4 °F 83% 29.91 in 10.0 mi SSE 3.5 mph - N/A   Clear
11:55 PM 78.8 °F - 73.4 °F 83% 29.91 in 10.0 mi South 3.5 mph - N/A   Clear